User: anonymous   Login
Location: Unspecified
(0.0000°N, 0.0000°E)
Time: 13:43:17
(UTC+02:00)
Language:

Sapphire - Orbit

View from above orbital plane
View from above orbital plane
View from above satellite
View from above satellite

Ground track
Ground track

The orbit data is extracted from the following two-line orbital elements,

1 26932U 01043D   14295.44933684  .00000240  00000-0  12497-3 0  7431
2 26932 067.0574 071.3570 0008042 287.8696 072.1528 14.30044545681848
Epoch (UTC): 22 October 2014 10:47:02
Eccentricity: 0.0008042
inclination: 67.0574°
perigee height: 786 km
apogee height: 797 km
right ascension of ascending node: 71.3570°
argument of perigee: 287.8696°
revolutions per day: 14.30044545
mean anomaly at epoch: 72.1528°
orbit number at epoch: 68184

The dashed part of the orbit path shows where the satellite is in the earth's shadow,  

DLR